TRA27T EHEH-LIME

Flight info

Callsign TRA27T
Flight time 1h 14m
Altitude 35000
Route LNO Z283 RITAX UT27 ROUSY DCT GTQ DCT POGOL DCT LASAT DCT DEVDI DCT RIPUS DCT GERSA DCT SOSON DCT ODINA
Aircraft A321/M-SDE3FGHIRWY/LB1

Departure

Time 2026-05-03 22:00
Airport Eindhoven Airport (EHEH)

Arrival

Time 2026-05-03 23:15
Airport Il Caravaggio International Airport (LIME)
Time Latitude Longitude Altitude Speed Heading
2026-05-03 21:20 51.45830 5.39043 88 ft 0 kts 125°
2026-05-03 21:51 51.45837 5.39027 93 ft 3 kts 125°
2026-05-03 21:52 51.45848 5.39001 92 ft 3 kts 125°
2026-05-03 21:52 51.45858 5.38978 91 ft 2 kts 125°
2026-05-03 21:52 51.45870 5.38957 92 ft 3 kts 153°
2026-05-03 21:52 51.45886 5.38952 91 ft 3 kts 198°
2026-05-03 21:53 51.45902 5.38965 90 ft 2 kts 214°
2026-05-03 21:53 51.45909 5.38972 91 ft 0 kts 215°
2026-05-03 21:56 51.45895 5.38957 90 ft 4 kts 215°
2026-05-03 21:56 51.45861 5.38918 92 ft 7 kts 215°
2026-05-03 21:56 51.45818 5.38866 88 ft 9 kts 229°
2026-05-03 21:57 51.45820 5.38771 89 ft 10 kts 299°
2026-05-03 21:57 51.45862 5.38673 88 ft 11 kts 305°
2026-05-03 21:57 51.45905 5.38576 93 ft 8 kts 305°
2026-05-03 21:57 51.45923 5.38488 89 ft 9 kts 255°
2026-05-03 21:58 51.45874 5.38411 89 ft 11 kts 214°
2026-05-03 21:58 51.45853 5.38387 88 ft 0 kts 216°
2026-05-03 21:59 51.45769 5.38291 88 ft 46 kts 215°
2026-05-03 22:00 51.45298 5.37767 89 ft 120 kts 214°
2026-05-03 22:00 51.44419 5.36782 97 ft 183 kts 214°
2026-05-03 22:00 51.43349 5.35580 803 ft 182 kts 214°
2026-05-03 22:00 51.42322 5.34447 1747 ft 179 kts 216°
2026-05-03 22:01 51.41247 5.33257 2148 ft 198 kts 216°
2026-05-03 22:01 51.40052 5.31977 2552 ft 219 kts 208°
2026-05-03 22:01 51.38525 5.31375 3147 ft 232 kts 180°
2026-05-03 22:01 51.36959 5.32081 3866 ft 242 kts 151°
2026-05-03 22:02 51.35778 5.34035 4619 ft 252 kts 120°
2026-05-03 22:02 51.35372 5.36783 5336 ft 260 kts 88°
2026-05-03 22:02 51.35930 5.39529 6052 ft 266 kts 57°
2026-05-03 22:02 51.36988 5.41994 6753 ft 269 kts 66°
2026-05-03 22:03 51.37353 5.44875 7394 ft 268 kts 95°
2026-05-03 22:03 51.37215 5.47865 8086 ft 270 kts 98°
2026-05-03 22:03 51.37060 5.50850 8805 ft 272 kts 97°
2026-05-03 22:03 51.36942 5.53880 9527 ft 275 kts 96°
2026-05-03 22:04 51.36860 5.56971 10097 ft 285 kts 94°
2026-05-03 22:04 51.36813 5.60240 10412 ft 303 kts 96°
2026-05-03 22:04 51.36390 5.63624 10670 ft 317 kts 116°
2026-05-03 22:04 51.35261 5.66711 10936 ft 332 kts 128°
2026-05-03 22:05 51.33869 5.69829 11189 ft 350 kts 129°
2026-05-03 22:05 51.32427 5.73042 11420 ft 368 kts 128°
2026-05-03 22:05 51.30909 5.76475 11661 ft 384 kts 128°
2026-05-03 22:05 51.29374 5.79996 12043 ft 392 kts 127°
2026-05-03 22:06 51.27797 5.83632 12575 ft 397 kts 127°
2026-05-03 22:06 51.26055 5.87059 13090 ft 397 kts 139°
2026-05-03 22:06 51.23841 5.89635 13574 ft 395 kts 155°
2026-05-03 22:06 51.21258 5.91069 14023 ft 393 kts 171°
2026-05-03 22:07 51.18543 5.91696 14489 ft 394 kts 176°
2026-05-03 22:07 51.15844 5.92200 14935 ft 396 kts 176°
2026-05-03 22:07 51.13080 5.92732 15393 ft 398 kts 175°
2026-05-03 22:07 51.10333 5.93112 15823 ft 398 kts 182°
2026-05-03 22:08 51.07606 5.92643 16234 ft 396 kts 194°
2026-05-03 22:08 51.04921 5.91502 16666 ft 397 kts 198°
2026-05-03 22:08 51.02283 5.90274 17067 ft 398 kts 198°
2026-05-03 22:08 50.99618 5.89049 17488 ft 400 kts 198°
2026-05-03 22:09 50.96924 5.87840 17889 ft 402 kts 197°
2026-05-03 22:09 50.94232 5.86651 18284 ft 404 kts 197°
2026-05-03 22:09 50.91484 5.85445 18638 ft 406 kts 197°
2026-05-03 22:10 50.86033 5.83047 19289 ft 409 kts 197°
2026-05-03 22:10 50.83284 5.81832 19625 ft 411 kts 197°
2026-05-03 22:10 50.80535 5.80625 19965 ft 412 kts 197°
2026-05-03 22:10 50.77761 5.79407 20306 ft 414 kts 197°
2026-05-03 22:11 50.74956 5.78180 20647 ft 416 kts 197°
2026-05-03 22:11 50.72174 5.76967 20990 ft 417 kts 197°
2026-05-03 22:11 50.69388 5.75752 21332 ft 419 kts 197°
2026-05-03 22:11 50.66579 5.74524 21687 ft 420 kts 197°
2026-05-03 22:12 50.63738 5.73282 22035 ft 422 kts 197°
2026-05-03 22:12 50.60867 5.72080 22394 ft 425 kts 194°
2026-05-03 22:12 50.57951 5.71439 22746 ft 429 kts 185°
2026-05-03 22:12 50.54966 5.71632 23109 ft 434 kts 177°
2026-05-03 22:13 50.51953 5.72213 23470 ft 436 kts 175°
2026-05-03 22:13 50.48948 5.72842 23784 ft 438 kts 175°
2026-05-03 22:13 50.46928 5.73253 23993 ft 439 kts 176°
2026-05-03 22:13 50.43874 5.73857 24295 ft 441 kts 176°
2026-05-03 22:14 50.40805 5.74449 24615 ft 442 kts 176°
2026-05-03 22:14 50.37774 5.75029 24901 ft 444 kts 176°
2026-05-03 22:14 50.34687 5.75617 25178 ft 445 kts 176°
2026-05-03 22:14 50.31596 5.76204 25518 ft 445 kts 176°
2026-05-03 22:15 50.28528 5.76788 25895 ft 444 kts 177°
2026-05-03 22:15 50.25483 5.77366 26248 ft 442 kts 177°
2026-05-03 22:15 50.22441 5.77946 26631 ft 441 kts 177°
2026-05-03 22:15 50.19383 5.78524 26993 ft 440 kts 177°
2026-05-03 22:16 50.16336 5.79098 27374 ft 439 kts 177°
2026-05-03 22:16 50.13303 5.79669 27727 ft 438 kts 177°
2026-05-03 22:16 50.10291 5.80240 28066 ft 437 kts 177°
2026-05-03 22:16 50.07304 5.81027 28386 ft 440 kts 171°
2026-05-03 22:17 50.04353 5.82418 28727 ft 442 kts 166°
2026-05-03 22:17 50.01452 5.83936 29059 ft 442 kts 166°
2026-05-03 22:17 49.98534 5.85474 29380 ft 441 kts 166°
2026-05-03 22:17 49.95637 5.86988 29696 ft 441 kts 166°
2026-05-03 22:18 49.92748 5.88484 30024 ft 440 kts 166°
2026-05-03 22:18 49.89829 5.89992 30284 ft 440 kts 166°
2026-05-03 22:18 49.86908 5.91498 30537 ft 440 kts 166°
2026-05-03 22:18 49.84008 5.92990 30796 ft 440 kts 166°
2026-05-03 22:19 49.81108 5.94474 31062 ft 440 kts 166°
2026-05-03 22:19 49.78230 5.95945 31309 ft 440 kts 166°
2026-05-03 22:19 49.75283 5.97458 31568 ft 439 kts 166°
2026-05-03 22:19 49.72401 5.98934 31823 ft 439 kts 166°
2026-05-03 22:20 49.69487 6.00423 32091 ft 438 kts 166°
2026-05-03 22:20 49.66612 6.01891 32330 ft 438 kts 166°
2026-05-03 22:20 49.63678 6.03388 32560 ft 438 kts 166°
2026-05-03 22:20 49.60806 6.04847 32801 ft 438 kts 166°
2026-05-03 22:21 49.57915 6.06312 33037 ft 438 kts 166°
2026-05-03 22:21 49.55027 6.07770 33247 ft 438 kts 166°
2026-05-03 22:21 49.52133 6.09231 33458 ft 437 kts 166°
2026-05-03 22:21 49.49239 6.10769 33657 ft 439 kts 162°
2026-05-03 22:22 49.46491 6.12952 33813 ft 447 kts 151°
2026-05-03 22:22 49.44010 6.15812 33998 ft 450 kts 146°
2026-05-03 22:22 49.41594 6.18850 34157 ft 451 kts 145°
2026-05-03 22:22 49.39177 6.21915 34322 ft 450 kts 145°
2026-05-03 22:23 49.36733 6.24974 34477 ft 450 kts 146°
2026-05-03 22:23 49.34301 6.27996 34622 ft 450 kts 146°
2026-05-03 22:23 49.31898 6.30971 34769 ft 449 kts 146°
2026-05-03 22:23 49.29465 6.33971 34919 ft 449 kts 146°
2026-05-03 22:24 49.27020 6.36979 35036 ft 450 kts 146°
2026-05-03 22:24 49.22141 6.42964 35026 ft 448 kts 146°
2026-05-03 22:25 49.17257 6.48953 35013 ft 449 kts 146°
2026-05-03 22:25 49.12400 6.54885 35019 ft 449 kts 146°
2026-05-03 22:26 49.07513 6.60839 35018 ft 450 kts 146°
2026-05-03 22:26 49.02592 6.66791 35017 ft 449 kts 147°
2026-05-03 22:26 49.00003 6.69263 35019 ft 443 kts 158°
2026-05-03 22:27 48.97123 6.70893 35016 ft 436 kts 170°
2026-05-03 22:27 48.94164 6.71534 35025 ft 432 kts 181°
2026-05-03 22:27 48.91149 6.71486 35025 ft 429 kts 185°
2026-05-03 22:28 48.85175 6.71142 35022 ft 429 kts 185°
2026-05-03 22:28 48.79240 6.70875 35024 ft 429 kts 185°
2026-05-03 22:29 48.73246 6.70636 35023 ft 429 kts 184°
2026-05-03 22:29 48.67232 6.70403 35023 ft 430 kts 184°
2026-05-03 22:30 48.61256 6.70171 35025 ft 431 kts 184°
2026-05-03 22:30 48.55273 6.69943 35030 ft 431 kts 184°
2026-05-03 22:31 48.49301 6.69710 35031 ft 431 kts 184°
2026-05-03 22:31 48.43306 6.69485 35031 ft 432 kts 184°
2026-05-03 22:32 48.37286 6.69258 35032 ft 431 kts 184°
2026-05-03 22:32 48.31303 6.69016 35036 ft 430 kts 184°
2026-05-03 22:33 48.25324 6.68787 35032 ft 430 kts 184°
2026-05-03 22:33 48.19315 6.69467 35035 ft 436 kts 168°
2026-05-03 22:33 48.16480 6.71056 35037 ft 442 kts 156°
2026-05-03 22:34 48.13897 6.73563 35033 ft 448 kts 143°
2026-05-03 22:34 48.11686 6.76910 35036 ft 453 kts 131°
2026-05-03 22:34 48.09829 6.80719 35044 ft 454 kts 128°
2026-05-03 22:35 48.06237 6.88429 35034 ft 453 kts 128°
2026-05-03 22:35 48.02571 6.96082 35033 ft 453 kts 129°
2026-05-03 22:36 47.98870 7.03720 35037 ft 453 kts 129°
2026-05-03 22:36 47.95176 7.11303 35034 ft 452 kts 129°
2026-05-03 22:37 47.91458 7.18926 35033 ft 454 kts 129°
2026-05-03 22:37 47.87745 7.26530 35034 ft 455 kts 129°
2026-05-03 22:38 47.84026 7.34144 35037 ft 455 kts 129°
2026-05-03 22:38 47.80317 7.41717 35042 ft 455 kts 129°
2026-05-03 22:39 47.76575 7.49312 35047 ft 456 kts 129°
2026-05-03 22:39 47.72821 7.56909 35049 ft 455 kts 129°
2026-05-03 22:40 47.69086 7.64462 35049 ft 455 kts 129°
2026-05-03 22:40 47.65335 7.72020 35054 ft 456 kts 129°
2026-05-03 22:41 47.61558 7.79606 35054 ft 457 kts 129°
2026-05-03 22:41 47.57788 7.87155 35056 ft 457 kts 129°
2026-05-03 22:42 47.53993 7.94734 35062 ft 457 kts 129°
2026-05-03 22:42 47.50197 8.02298 35075 ft 458 kts 129°
2026-05-03 22:43 47.46423 8.09799 35074 ft 459 kts 129°
2026-05-03 22:43 47.42584 8.17408 35074 ft 460 kts 129°
2026-05-03 22:44 47.38764 8.24958 35079 ft 459 kts 129°
2026-05-03 22:44 47.34942 8.32488 35089 ft 460 kts 129°
2026-05-03 22:45 47.31087 8.40059 35086 ft 459 kts 129°
2026-05-03 22:45 47.26803 8.46956 35076 ft 458 kts 146°
2026-05-03 22:45 47.24084 8.49336 35081 ft 453 kts 158°
2026-05-03 22:46 47.21098 8.50765 35079 ft 449 kts 171°
2026-05-03 22:46 47.14903 8.51745 35088 ft 446 kts 178°
2026-05-03 22:47 47.08758 8.52534 35085 ft 447 kts 177°
2026-05-03 22:47 47.02541 8.53426 35081 ft 447 kts 176°
2026-05-03 22:48 46.96344 8.54319 35080 ft 447 kts 176°
2026-05-03 22:48 46.90140 8.55210 35079 ft 448 kts 176°
2026-05-03 22:49 46.83942 8.56099 35089 ft 448 kts 176°
2026-05-03 22:49 46.77730 8.56995 35101 ft 450 kts 176°
2026-05-03 22:50 46.71494 8.57886 35111 ft 449 kts 177°
2026-05-03 22:50 46.65290 8.58769 35121 ft 449 kts 177°
2026-05-03 22:51 46.59054 8.59660 35136 ft 449 kts 176°
2026-05-03 22:51 46.52808 8.60544 35091 ft 449 kts 176°
2026-05-03 22:51 46.49699 8.60984 34815 ft 448 kts 176°
2026-05-03 22:52 46.46626 8.61417 34384 ft 448 kts 176°
2026-05-03 22:52 46.43505 8.61856 33870 ft 449 kts 176°
2026-05-03 22:52 46.40391 8.62293 33303 ft 451 kts 176°
2026-05-03 22:52 46.37271 8.62728 32732 ft 452 kts 176°
2026-05-03 22:53 46.34142 8.63166 32165 ft 453 kts 176°
2026-05-03 22:53 46.30970 8.63610 31615 ft 454 kts 176°
2026-05-03 22:53 46.27844 8.64050 31066 ft 456 kts 176°
2026-05-03 22:53 46.24684 8.64495 30528 ft 457 kts 176°
2026-05-03 22:54 46.21497 8.64941 29958 ft 458 kts 176°
2026-05-03 22:54 46.18320 8.65401 29347 ft 460 kts 175°
2026-05-03 22:54 46.15170 8.66318 28744 ft 463 kts 165°
2026-05-03 22:54 46.12223 8.68091 28144 ft 466 kts 153°
2026-05-03 22:55 46.09542 8.70776 27573 ft 470 kts 140°
2026-05-03 22:55 46.07295 8.74235 27020 ft 473 kts 128°
2026-05-03 22:55 46.05516 8.78228 26483 ft 475 kts 121°
2026-05-03 22:55 46.03864 8.82339 25938 ft 476 kts 121°
2026-05-03 22:56 46.02215 8.86448 25398 ft 474 kts 121°
2026-05-03 22:56 46.01117 8.89144 25054 ft 472 kts 122°
2026-05-03 22:56 45.99443 8.93216 24528 ft 468 kts 122°
2026-05-03 22:56 45.97800 8.97190 24047 ft 464 kts 122°
2026-05-03 22:57 45.95614 9.02482 23394 ft 459 kts 122°
2026-05-03 22:57 45.94509 9.05155 23032 ft 457 kts 122°
2026-05-03 22:57 45.92888 9.09064 22507 ft 453 kts 122°
2026-05-03 22:57 45.91299 9.12888 22016 ft 449 kts 122°
2026-05-03 22:58 45.89691 9.16752 21517 ft 446 kts 122°
2026-05-03 22:58 45.88110 9.20550 21030 ft 443 kts 122°
2026-05-03 22:58 45.86534 9.24327 20549 ft 439 kts 122°
2026-05-03 22:58 45.84964 9.28083 20081 ft 436 kts 122°
2026-05-03 22:59 45.83420 9.31768 19620 ft 432 kts 122°
2026-05-03 22:59 45.81880 9.35440 19150 ft 428 kts 122°
2026-05-03 22:59 45.80365 9.39051 18690 ft 417 kts 122°
2026-05-03 22:59 45.78886 9.42575 18212 ft 406 kts 122°
2026-05-03 23:00 45.77464 9.45961 17696 ft 396 kts 122°
2026-05-03 23:00 45.76056 9.49323 17181 ft 387 kts 122°
2026-05-03 23:00 45.74691 9.52571 16692 ft 379 kts 122°
2026-05-03 23:00 45.73336 9.55791 16203 ft 373 kts 122°
2026-05-03 23:01 45.72001 9.58959 15730 ft 368 kts 122°
2026-05-03 23:01 45.70702 9.62034 15258 ft 363 kts 122°
2026-05-03 23:01 45.69388 9.65133 14800 ft 358 kts 122°
2026-05-03 23:01 45.68099 9.68158 14346 ft 354 kts 123°
2026-05-03 23:02 45.66547 9.70840 13930 ft 347 kts 141°
2026-05-03 23:02 45.64526 9.72569 13537 ft 338 kts 156°
2026-05-03 23:02 45.62385 9.73881 13165 ft 332 kts 158°
2026-05-03 23:02 45.60256 9.75150 12795 ft 326 kts 158°
2026-05-03 23:03 45.58109 9.76232 12428 ft 335 kts 170°
2026-05-03 23:03 45.55802 9.76195 12070 ft 341 kts 188°
2026-05-03 23:03 45.53293 9.75852 11749 ft 373 kts 183°
2026-05-03 23:03 45.50727 9.75697 11424 ft 363 kts 182°
2026-05-03 23:04 45.48258 9.75585 11043 ft 354 kts 181°
2026-05-03 23:04 45.45823 9.75481 10616 ft 346 kts 181°
2026-05-03 23:04 45.43464 9.75382 10115 ft 335 kts 181°
2026-05-03 23:04 45.41180 9.75668 9592 ft 323 kts 166°
2026-05-03 23:05 45.39150 9.76874 9153 ft 312 kts 148°
2026-05-03 23:05 45.37524 9.78870 8812 ft 307 kts 130°
2026-05-03 23:05 45.36403 9.81421 8447 ft 303 kts 113°
2026-05-03 23:05 45.35852 9.84270 8094 ft 299 kts 97°
2026-05-03 23:06 45.35885 9.87210 7717 ft 296 kts 80°
2026-05-03 23:06 45.36486 9.89991 7371 ft 293 kts 64°
2026-05-03 23:06 45.37588 9.92400 7025 ft 289 kts 47°
2026-05-03 23:06 45.39063 9.94241 6717 ft 284 kts 32°
2026-05-03 23:07 45.40824 9.95450 6447 ft 277 kts 16°
2026-05-03 23:07 45.42683 9.95953 6193 ft 269 kts
2026-05-03 23:07 45.44544 9.96072 5963 ft 262 kts
2026-05-03 23:07 45.46343 9.96159 5726 ft 256 kts
2026-05-03 23:08 45.48088 9.96263 5487 ft 250 kts
2026-05-03 23:08 45.49810 9.96418 5244 ft 242 kts
2026-05-03 23:08 45.51443 9.96926 5009 ft 236 kts 13°
2026-05-03 23:08 45.53004 9.97526 4766 ft 229 kts 14°
2026-05-03 23:09 45.54506 9.98109 4529 ft 222 kts 14°
2026-05-03 23:09 45.55976 9.98679 4300 ft 218 kts 14°
2026-05-03 23:09 45.57447 9.99245 4067 ft 217 kts 13°
2026-05-03 23:09 45.58893 9.99792 3847 ft 217 kts 12°
2026-05-03 23:10 45.60380 9.99936 3604 ft 213 kts 342°
2026-05-03 23:10 45.61523 9.98826 3487 ft 190 kts 303°
2026-05-03 23:10 45.61985 9.97185 3511 ft 168 kts 285°
2026-05-03 23:10 45.62237 9.95674 3501 ft 155 kts 282°
2026-05-03 23:11 45.62492 9.94115 3515 ft 164 kts 283°
2026-05-03 23:11 45.62745 9.92519 3467 ft 164 kts 284°
2026-05-03 23:11 45.63023 9.90971 3319 ft 163 kts 284°
2026-05-03 23:11 45.63313 9.89399 3112 ft 163 kts 284°
2026-05-03 23:12 45.63603 9.87831 2901 ft 162 kts 284°
2026-05-03 23:12 45.63894 9.86267 2688 ft 163 kts 284°
2026-05-03 23:12 45.64181 9.84723 2470 ft 162 kts 284°
2026-05-03 23:12 45.64470 9.83165 2250 ft 162 kts 284°
2026-05-03 23:13 45.64760 9.81604 2031 ft 161 kts 285°
2026-05-03 23:13 45.65047 9.80058 1829 ft 161 kts 285°
2026-05-03 23:13 45.65334 9.78512 1646 ft 161 kts 286°
2026-05-03 23:13 45.65614 9.77002 1444 ft 148 kts 286°
2026-05-03 23:14 45.65873 9.75609 1259 ft 143 kts 286°
2026-05-03 23:14 45.66127 9.74232 1076 ft 142 kts 286°
2026-05-03 23:14 45.66384 9.72873 896 ft 141 kts 287°
2026-05-03 23:14 45.66624 9.71540 810 ft 129 kts 286°
2026-05-03 23:15 45.66813 9.70538 792 ft 68 kts 285°
2026-05-03 23:15 45.66900 9.70078 792 ft 37 kts 285°
2026-05-03 23:15 45.66959 9.69764 792 ft 33 kts 284°
2026-05-03 23:15 45.67016 9.69441 792 ft 34 kts 284°
2026-05-03 23:16 45.67057 9.69209 792 ft 6 kts 284°
2026-05-03 23:16 45.67063 9.69136 792 ft 9 kts 264°
2026-05-03 23:16 45.67046 9.69038 792 ft 11 kts 235°
2026-05-03 23:16 45.66975 9.68988 792 ft 13 kts 190°
2026-05-03 23:17 45.66908 9.69057 792 ft 14 kts 102°
2026-05-03 23:17 45.66891 9.69205 792 ft 16 kts 104°
2026-05-03 23:17 45.66861 9.69365 792 ft 17 kts 105°
2026-05-03 23:17 45.66829 9.69536 793 ft 19 kts 105°
2026-05-03 23:18 45.66794 9.69721 793 ft 20 kts 105°
2026-05-03 23:18 45.66758 9.69915 793 ft 21 kts 104°
2026-05-03 23:18 45.66739 9.70020 793 ft 5 kts 105°
2026-05-03 23:18 45.66724 9.70071 793 ft 7 kts 137°
2026-05-03 23:19 45.66673 9.70073 793 ft 9 kts 198°
2026-05-03 23:19 45.66637 9.70057 793 ft 0 kts 196°